GLOBALSTAR M001 1 25162U 98008A 26103.91173493 -.00000092 00000+0 39816-4 0 9992 2 25162 52.0023 177.9247 0001846 165.9409 6.4631 12.38230999280961 GLOBALSTAR M004 1 25163U 98008B 26103.80394850 -.00000092 00000+0 68812-4 0 9991 2 25163 52.0003 217.0255 0003039 225.9710 300.6076 12.63418729299681 GLOBALSTAR M002 1 25164U 98008C 26103.59073968 -.00000083 00000+0 -13422-3 0 9999 2 25164 52.0007 206.9870 0000742 344.4147 15.6650 11.61515923218970 GLOBALSTAR M003 1 25165U 98008D 26103.65446397 -.00000177 00000+0 -93252-3 0 9990 2 25165 51.9852 56.2731 0007836 173.0816 358.4835 12.12017603269652 GLOBALSTAR M014 1 25306U 98023A 26103.83777507 -.00000059 00000+0 34706-3 0 9991 2 25306 51.9809 123.2672 0001065 193.7412 337.9541 11.65485952226224 GLOBALSTAR M006 1 25307U 98023B 26103.66945392 -.00000106 00000+0 -61274-3 0 9996 2 25307 51.9935 187.4004 0002977 286.4456 242.8422 11.58178048251640 GLOBALSTAR M015 1 25308U 98023C 26103.81567120 -.00000042 00000+0 71394-3 0 9995 2 25308 51.9833 299.2901 0012039 249.9284 123.4255 11.48861288228634 GLOBALSTAR M008 1 25309U 98023D 26103.87680950 -.00000080 00000+0 12883-3 0 9999 2 25309 51.9984 46.2627 0003126 84.2560 312.5097 12.36082725275031 GLOBALSTAR M023 1 25621U 99004A 26103.74556094 -.00000051 00000+0 29164-3 0 9991 2 25621 52.0104 218.2195 0010328 73.3352 90.7667 12.62523145253696 GLOBALSTAR M040 1 25622U 99004B 26103.64575480 -.00000094 00000+0 54117-4 0 9995 2 25622 51.9917 223.1198 0000389 19.2643 355.0647 12.62032358253194 GLOBALSTAR M036 1 25623U 99004C 26103.95779713 .00000043 00000+0 18279-2 0 9995 2 25623 51.9952 167.5349 0010317 267.0536 265.6183 11.86626483214684 GLOBALSTAR M038 1 25624U 99004D 26103.78642550 -.00000071 00000+0 19795-3 0 9992 2 25624 51.9975 285.8675 0001169 347.8697 24.9543 12.32543701239446 GLOBALSTAR M022 1 25649U 99012A 26103.66729333 -.00000064 00000+0 27555-3 0 9995 2 25649 52.0029 194.0492 0002565 55.2647 113.0913 12.02511998212520 GLOBALSTAR M041 1 25650U 99012B 26103.66320008 -.00000080 00000+0 73087-4 0 9993 2 25650 52.0007 84.6697 0001068 195.1066 164.9739 11.96682830214254 GLOBALSTAR M046 1 25651U 99012C 26103.79000929 -.00000170 00000+0 -90069-3 0 9994 2 25651 52.0034 132.8775 0001966 133.0501 37.7502 12.09421499220035 GLOBALSTAR M037 1 25652U 99012D 26103.94163145 -.00000071 00000+0 18432-3 0 9995 2 25652 52.0029 348.1290 0002502 117.9226 255.1149 12.62464676249268 GLOBALSTAR M045 1 25676U 99019A 26103.94752161 -.00000113 00000+0 -16822-3 0 9999 2 25676 51.9959 168.0268 0000345 167.7027 4.3962 12.27072791230310 GLOBALSTAR M019 1 25677U 99019B 26103.88743252 -.00000036 00000+0 56576-3 0 9997 2 25677 51.9900 319.7297 0001310 162.9622 210.4601 12.13883843221666 GLOBALSTAR M044 1 25678U 99019C 26103.92215735 -.00000065 00000+0 26592-3 0 9990 2 25678 51.9980 308.6138 0005400 256.7057 241.4623 11.90264983207130 GLOBALSTAR M042 1 25679U 99019D 26103.79015160 -.00000040 00000+0 49430-3 0 9995 2 25679 52.0015 282.3328 0002842 182.2864 191.3089 12.22096408222011 GLOBALSTAR M025 1 25770U 99031A 26103.94881767 -.00000069 00000+0 -37209-4 0 9996 2 25770 51.9800 182.5322 0002034 265.7225 266.6441 11.22560781515482 GLOBALSTAR M049 1 25771U 99031B 26103.82216237 -.00000087 00000+0 -74289-3 0 9996 2 25771 51.9867 232.6939 0003255 159.0244 201.0686 11.12124028150870 GLOBALSTAR M047 1 25772U 99031C 26103.65953332 -.00000084 00000+0 -40846-3 0 9991 2 25772 51.9822 201.3259 0016343 61.3197 298.9250 11.31933221505133 GLOBALSTAR M052 1 25773U 99031D 26103.70964118 -.00000045 00000+0 70233-3 0 9991 2 25773 51.9899 337.4009 0002038 324.6125 75.5883 11.15064428512038 GLOBALSTAR M035 1 25851U 99037A 26103.78578140 -.00000074 00000+0 -40422-3 0 9998 2 25851 51.9921 104.5937 0013484 109.6581 61.1511 11.04541855129471 GLOBALSTAR M032 1 25852U 99037B 26103.81507021 -.00000089 00000+0 -70905-3 0 9998 2 25852 51.9951 268.9914 0012009 314.3115 45.6699 11.19069002168444 GLOBALSTAR M051 1 25853U 99037C 26103.74851597 -.00000067 00000+0 12078-3 0 9993 2 25853 51.9826 35.8212 0000396 93.0038 267.0818 11.42201728166731 GLOBALSTAR M030 1 25854U 99037D 26103.61792774 -.00000017 00000+0 12274-2 0 9993 2 25854 51.9862 183.1373 0003799 210.4295 149.6301 11.55110552184760 GLOBALSTAR M048 1 25872U 99041A 26103.98343756 -.00000053 00000+0 45413-3 0 9992 2 25872 51.9403 341.9193 0013165 349.2461 22.3868 11.33863187159109 GLOBALSTAR M026 1 25873U 99041B 26103.81795073 -.00000102 00000+0 -13859-2 0 9992 2 25873 52.0002 219.3130 0001608 64.9974 103.6986 11.06842443181779 GLOBALSTAR M043 1 25874U 99041C 26103.78174269 -.00000045 00000+0 68805-3 0 9994 2 25874 51.9375 102.0116 0013407 103.9220 67.4180 11.25699637156727 GLOBALSTAR M028 1 25875U 99041D 26103.50616891 -.00000099 00000+0 93772-5 0 9999 2 25875 51.9649 17.5524 0063724 4.2466 355.8924 12.50598567227758 GLOBALSTAR M024 1 25883U 99043A 26103.82580133 -.00000130 00000+0 -23129-2 0 9997 2 25883 52.0024 62.2679 0001252 234.3232 136.7465 11.10170717148250 GLOBALSTAR M027 1 25884U 99043B 26103.81616213 -.00000005 00000+0 22287-2 0 9990 2 25884 52.0177 148.7942 0021541 117.5433 242.7552 11.04373507174452 GLOBALSTAR M054 1 25885U 99043C 26103.56057242 -.00000067 00000+0 11263-3 0 9995 2 25885 52.0133 226.2506 0004215 342.6982 101.4484 11.39226408153280 GLOBALSTAR M053 1 25886U 99043D 26103.94906178 -.00000067 00000+0 34034-4 0 9991 2 25886 51.9970 189.1038 0003704 224.1110 307.9351 11.27671366153374 GLOBALSTAR M058 1 25907U 99049A 26103.79227352 -.00000005 00000+0 10673-2 0 9997 2 25907 51.9969 26.4680 0002383 121.7422 238.3645 11.93211464577423 GLOBALSTAR M050 1 25908U 99049B 26103.69697447 -.00000030 00000+0 66175-3 0 9990 2 25908 52.0025 11.9478 0008443 272.3363 102.3211 12.07466196184493 GLOBALSTAR M033 1 25909U 99049C 26103.54699243 .00000029 00000+0 11586-2 0 9993 2 25909 51.9903 223.4473 0014952 160.3876 199.7549 12.20307287572416 GLOBALSTAR M055 1 25910U 99049D 26103.74154864 -.00000085 00000+0 77520-4 0 9997 2 25910 52.0016 219.0097 0006916 42.0985 318.0397 12.29443078205256 GLOBALSTAR M057 1 25943U 99058A 26103.75009744 -.00000079 00000+0 12206-3 0 9992 2 25943 51.9982 215.1961 0001954 264.6647 95.3980 12.24838190203768 GLOBALSTAR M059 1 25944U 99058B 26103.73315366 -.00000056 00000+0 37371-3 0 9996 2 25944 51.9992 114.0837 0000436 210.7909 321.0447 11.99997064610122 GLOBALSTAR M056 1 25945U 99058C 26103.78024951 -.00000045 00000+0 49029-3 0 9990 2 25945 51.9943 108.2136 0001209 56.6839 114.4118 12.04789120198853 GLOBALSTAR M031 1 25946U 99058D 26103.90789115 -.00000129 00000+0 -39428-3 0 9991 2 25946 51.9992 342.1798 0002111 75.4991 296.6385 12.16051157201132 GLOBALSTAR M039 1 25961U 99062A 26103.65163035 -.00000099 00000+0 25505-4 0 9999 2 25961 51.9843 73.5394 0002511 301.3229 58.7391 12.62344770218162 GLOBALSTAR M034 1 25962U 99062B 26103.87581595 -.00000056 00000+0 38953-3 0 9992 2 25962 51.9886 309.7645 0013392 247.9809 125.3507 11.79456768173877 GLOBALSTAR M029 1 25963U 99062C 26103.97609278 -.00000080 00000+0 72819-4 0 9990 2 25963 51.9837 1.2074 0002621 1.8484 10.2960 11.99909698205231 GLOBALSTAR M061 1 25964U 99062D 26103.83682486 -.00000095 00000+0 -23850-3 0 9995 2 25964 51.9772 137.8916 0006152 171.2117 0.0468 11.76777085156579 GLOBALSTAR M063 1 26081U 00008A 26103.59459975 -.00000059 00000+0 33883-3 0 9992 2 26081 51.9974 40.3930 0004432 163.8712 6.7459 11.86183433193220 GLOBALSTAR M062 1 26082U 00008B 26103.81844469 -.00000043 00000+0 39354-3 0 9996 2 26082 51.9852 291.7018 0007799 40.7480 332.7753 12.43484815534027 GLOBALSTAR M060 1 26083U 00008C 26103.93355993 .00000010 00000+0 10020-2 0 9990 2 26083 52.0022 293.9227 0003421 31.7335 138.8789 12.17680748189004 GLOBALSTAR M064 1 26084U 00008D 26103.79820418 -.00000057 00000+0 37369-3 0 9992 2 26084 52.0002 135.1455 0001501 268.2884 91.7777 11.88543622202844 GLOBALSTAR M065 1 31571U 07020A 26103.57577164 -.00000055 00000+0 27318-3 0 9994 2 31571 51.9917 31.9621 0009243 254.1298 277.5183 12.62025585871333 GLOBALSTAR M069 1 31573U 07020C 26103.67575378 -.00000116 00000+0 -21406-3 0 9993 2 31573 52.0029 74.7154 0002038 18.6294 152.6228 12.23469977870900 GLOBALSTAR M072 1 31574U 07020D 26103.78888600 -.00000087 00000+0 -37355-4 0 9999 2 31574 51.9932 271.6932 0001593 157.2644 216.0955 11.91657125867308 GLOBALSTAR M071 1 31576U 07020F 26103.44158475 -.00000008 00000+0 82011-3 0 9994 2 31576 52.0040 109.4608 0000852 355.8054 171.2596 12.18267883531532 GLOBALSTAR M067 1 32263U 07048A 26103.65960638 -.00000094 00000+0 28507-4 0 9999 2 32263 51.9726 236.7102 0000752 223.2191 150.4948 12.40687156846787 GLOBALSTAR M070 1 32264U 07048B 26103.77220310 -.00000071 00000+0 18542-3 0 9991 2 32264 51.9754 292.7870 0001038 100.1336 273.7665 12.62333242851638 GLOBALSTAR M066 1 32265U 07048C 26103.64430559 -.00000100 00000+0 -50538-4 0 9992 2 32265 51.9587 243.1971 0004091 261.5645 111.2872 12.30388281852288 GLOBALSTAR M068 1 32266U 07048D 26103.78441862 -.00000059 00000+0 24839-3 0 9993 2 32266 51.9868 105.9162 0001168 77.0886 109.7475 12.62844611855538 GLOBALSTAR M079 1 37188U 10054A 26103.82817104 -.00000085 00000+0 10259-3 0 9993 2 37188 52.0048 304.5900 0000690 115.3204 257.8443 12.62264937714423 GLOBALSTAR M074 1 37189U 10054B 26103.85475208 -.00000080 00000+0 13127-3 0 9994 2 37189 52.0026 303.7848 0000696 88.1972 285.4524 12.62267418715039 GLOBALSTAR M076 1 37190U 10054C 26103.80177331 -.00000067 00000+0 20413-3 0 9998 2 37190 52.0039 304.1429 0000479 93.5063 279.9224 12.62271755714746 GLOBALSTAR M077 1 37191U 10054D 26103.90171809 -.00000057 00000+0 38729-3 0 9992 2 37191 51.9988 342.4633 0003245 61.5486 310.5955 11.67547285713636 GLOBALSTAR M075 1 37192U 10054E 26103.97330356 -.00000082 00000+0 12071-3 0 9994 2 37192 51.9970 345.7108 0000768 85.6462 287.1812 12.62265817713836 GLOBALSTAR M073 1 37193U 10054F 26103.59183178 -.00000103 00000+0 47128-5 0 9998 2 37193 52.0057 260.9216 0000604 127.1040 310.4184 12.62266376715774 GLOBALSTAR M083 1 37739U 11033A 26103.78275997 -.00000108 00000+0 -22880-4 0 9997 2 37739 51.9854 208.6564 0000536 147.4007 19.8973 12.62262461684817 GLOBALSTAR M088 1 37740U 11033B 26103.75768230 -.00000082 00000+0 11915-3 0 9999 2 37740 52.0195 115.0047 0000232 78.1025 93.2046 12.62263027680350 GLOBALSTAR M091 1 37741U 11033C 26103.69415265 -.00000099 00000+0 24561-4 0 9990 2 37741 51.9985 78.2554 0000391 89.9307 93.9522 12.62262715681134 GLOBALSTAR M085 1 37742U 11033D 26103.80662396 -.00000104 00000+0 -18312-6 0 9990 2 37742 52.0148 29.1495 0000621 93.2760 302.1230 12.62270103681663 GLOBALSTAR M081 1 37743U 11033E 26103.82903811 -.00000112 00000+0 -46883-4 0 9994 2 37743 51.9979 31.5912 0000448 73.5153 303.0373 12.62263370681812 GLOBALSTAR M089 1 37744U 11033F 26103.94689855 -.00000086 00000+0 10080-3 0 9995 2 37744 51.9956 345.4073 0000703 59.7788 312.9217 12.62265664682676 GLOBALSTAR M084 1 38040U 11080A 26103.56433788 -.00000111 00000+0 -38407-4 0 9991 2 38040 52.0004 214.0173 0000339 102.7306 270.6085 12.62266307660601 GLOBALSTAR M080 1 38041U 11080B 26103.80869854 -.00000112 00000+0 -44992-4 0 9993 2 38041 52.0056 214.9698 0001037 121.3288 52.6432 12.62268244660754 GLOBALSTAR M082 1 38042U 11080C 26103.90274973 -.00000094 00000+0 55949-4 0 9999 2 38042 52.0068 170.1783 0000694 133.6305 37.9819 12.62268988661470 GLOBALSTAR M092 1 38043U 11080D 26103.68319365 -.00000078 00000+0 14263-3 0 9995 2 38043 52.0082 261.2392 0000715 104.8303 268.1112 12.62266395659906 GLOBALSTAR M090 1 38044U 11080E 26103.92950310 -.00000085 00000+0 10322-3 0 9994 2 38044 52.0111 164.0317 0000376 142.9260 29.5033 12.62267918661596 GLOBALSTAR M086 1 38045U 11080F 26103.95231124 -.00000088 00000+0 89501-4 0 9992 2 38045 51.9882 163.9972 0000760 253.8252 278.9431 12.62285198661542 GLOBALSTAR M097 1 39072U 13005A 26103.86473672 -.00000118 00000+0 -79898-4 0 9991 2 39072 52.0045 79.1330 0000266 97.6216 262.4681 12.62260107608782 GLOBALSTAR M093 1 39073U 13005B 26103.60097331 -.00000099 00000+0 27519-4 0 9998 2 39073 52.0101 73.2600 0000244 126.0924 233.9966 12.62264469608706 GLOBALSTAR M094 1 39074U 13005C 26103.91780939 -.00000086 00000+0 96767-4 0 9993 2 39074 51.9982 346.4818 0000634 101.5660 258.5278 12.62267382610356 GLOBALSTAR M096 1 39075U 13005D 26103.53515964 -.00000105 00000+0 -90052-5 0 9991 2 39075 52.0094 36.3933 0000506 90.7641 269.3284 12.62263999609223 GLOBALSTAR M078 1 39076U 13005E 26103.74568755 -.00000088 00000+0 89683-4 0 9997 2 39076 51.9850 119.8501 0001136 118.1063 241.9918 12.62276818607876 GLOBALSTAR M095 1 39077U 13005F 26103.77247614 -.00000086 00000+0 96527-4 0 9992 2 39077 52.0060 117.2826 0000572 138.2135 221.8776 12.62267341607735 GLOBALSTAR M087 1 52888U 22064A 26103.78594292 -.00000107 00000+0 -17130-4 0 9998 2 52888 51.9996 258.5203 0000835 127.3094 232.7849 12.62268091183003